Weather History for Phuket, Thailand

Change the Weather History Date:

Sunday, October 28, 2012

  Actual Average Record
Temperature  
Mean Temperature 82 °F -  
Max Temperature 90 °F 88 °F 95 °F (1997)
Min Temperature 74 °F 75 °F 73 °F (2007)
Cooling Degree Days 17    
Growing Degree Days 32 (Base 50)    
Moisture  
Dew Point 73 °F    
Average Humidity 76    
Maximum Humidity 94    
Minimum Humidity 49    
Precipitation  
Precipitation 0.01 in 0.26 in - ()
Sea Level Pressure  
Sea Level Pressure 29.77 in    
Wind  
Wind Speed 3 mph ()    
Max Wind Speed 9 mph    
Max Gust Speed -    
Visibility 5.7 miles    
Events      
Averages and records for this station are not official NWS values.
T = Trace of Precipitation, MM = Missing Value Source: Averaged Metar Reports

Daily Weather History Graph

Daily Weather History Graph

Search for Another Location

Airport:

Trip Planner

Search our weather history database for the weather conditions in past years. The results will help you decide how hot, cold, wet, or windy it might be!

Date:

Astronomy

Oct. 28, 2012 Rise Set
Actual Time 6:14 AM ICT 6:06 PM ICT
Civil Twilight 5:53 AM ICT 6:27 PM ICT
Nautical Twilight 5:28 AM ICT 6:52 PM ICT
Astronomical Twilight 5:03 AM ICT 7:17 PM ICT
Moon 5:00 PM ICT (10/28) 4:49 AM ICT (10/28)
Length of Visible Light 12h 34m
Length of Day
11h 51m
Waxing Gibbous, 98% of the Moon is Illuminated
Oct 28
Waxing Gibbous
Oct 30
Full
Nov 7
Last Quarter
Nov 14
New
Nov 20
First Quarter

Hourly Weather History & Observations

Time (ICT) Temp. Heat Index Dew Point Humidity Pressure Visibility Wind Dir Wind Speed Gust Speed Precip Events Conditions
12:00 AM 75.2 °F - 73.4 °F 94% 29.80 in 5.0 mi NE 2.3 mph - N/A   Mostly Cloudy
12:30 AM 77.0 °F - 73.4 °F 89% 29.80 in 5.0 mi Calm Calm - N/A   Mostly Cloudy
1:00 AM 78 °F - 75 °F 88% 29.77 in 6 mi Calm Calm - -   Partly Cloudy
1:00 AM 77.0 °F - 73.4 °F 89% 29.80 in 5.0 mi Calm Calm - N/A   Mostly Cloudy
1:30 AM 75.2 °F - 73.4 °F 94% 29.77 in 5.6 mi Calm Calm - N/A   Mostly Cloudy
2:00 AM 75.2 °F - 73.4 °F 94% 29.77 in 5.6 mi Calm Calm - N/A   Mostly Cloudy
2:30 AM 75.2 °F - 73.4 °F 94% 29.77 in 5.6 mi East 5.8 mph - N/A   Scattered Clouds
3:00 AM 75.2 °F - 73.4 °F 94% 29.74 in 5.6 mi East 3.5 mph - N/A   Scattered Clouds
3:30 AM 75.2 °F - 73.4 °F 94% 29.74 in 5.6 mi East 3.5 mph - N/A   Scattered Clouds
4:00 AM 75.2 °F - 73.4 °F 94% 29.74 in 5.6 mi East 2.3 mph - N/A   Scattered Clouds
4:30 AM 75.2 °F - 73.4 °F 94% 29.74 in 5.6 mi East 3.5 mph - N/A   Scattered Clouds
5:30 AM 75.2 °F - 73.4 °F 94% 29.77 in 5.6 mi Calm Calm - N/A   Scattered Clouds
6:00 AM 75.2 °F - 73.4 °F 94% 29.77 in 5.6 mi East 3.5 mph - N/A   Scattered Clouds
6:30 AM 75.2 °F - 73.4 °F 94% 29.77 in 5.6 mi East 3.5 mph - N/A   Scattered Clouds
7:00 AM 76 °F - 74 °F 91% 29.78 in 6 mi East 3.5 mph - -   Scattered Clouds
7:30 AM 78.8 °F - 75.2 °F 89% 29.80 in 5.6 mi East 6.9 mph - N/A   Scattered Clouds
8:30 AM 82.4 °F 88.2 °F 73.4 °F 74% 29.83 in 6.2 mi ENE 5.8 mph - N/A   Scattered Clouds
9:00 AM 84.2 °F 90.9 °F 73.4 °F 70% 29.83 in 6.2 mi East 6.9 mph - N/A   Scattered Clouds
9:30 AM 84.2 °F 90.9 °F 73.4 °F 70% 29.83 in 6.2 mi East 8.1 mph - N/A   Scattered Clouds
10:00 AM 84.2 °F 89.6 °F 71.6 °F 66% 29.83 in 6.2 mi ENE 9.2 mph - N/A   Scattered Clouds
10:30 AM 86.0 °F 93.4 °F 73.4 °F 66% 29.83 in 6.2 mi East 5.8 mph - N/A   Scattered Clouds
11:00 AM 86.0 °F 90.4 °F 69.8 °F 58% 29.80 in 6.2 mi East 6.9 mph - N/A   Scattered Clouds
11:30 AM 87.8 °F 91.4 °F 68.0 °F 52% 29.80 in 6.2 mi East 8.1 mph - N/A   Scattered Clouds
12:00 PM 87.8 °F 90.4 °F 66.2 °F 49% 29.80 in 6.2 mi East 8.1 mph - N/A   Scattered Clouds
12:30 PM 87.8 °F 90.4 °F 66.2 °F 49% 29.77 in 6.2 mi ENE 9.2 mph - N/A   Partly Cloudy
1:00 PM 87.8 °F 91.4 °F 68.0 °F 52% 29.77 in 6.2 mi ENE 9.2 mph - N/A   Partly Cloudy
1:30 PM 87.8 °F 91.4 °F 68.0 °F 52% 29.74 in 6.2 mi ENE 9.2 mph - N/A   Partly Cloudy
2:00 PM 87.8 °F 92.6 °F 69.8 °F 55% 29.74 in 6.2 mi East 9.2 mph - N/A   Partly Cloudy
2:30 PM 87.8 °F 92.6 °F 69.8 °F 55% 29.71 in 6.2 mi East 9.2 mph - N/A   Partly Cloudy
3:00 PM 89.6 °F 94.7 °F 69.8 °F 52% 29.71 in 6.2 mi East 8.1 mph - N/A   Partly Cloudy
3:30 PM 87.8 °F 92.6 °F 69.8 °F 55% 29.71 in 6.2 mi ENE 9.2 mph - N/A   Partly Cloudy
4:00 PM 89.6 °F 94.7 °F 69.8 °F 52% 29.71 in 6.2 mi East 5.8 mph - N/A   Partly Cloudy
4:30 PM 87.8 °F 92.6 °F 69.8 °F 55% 29.71 in 6.2 mi Variable 4.6 mph - N/A   Partly Cloudy
5:00 PM 87.8 °F 93.8 °F 71.6 °F 58% 29.71 in 6.2 mi East 4.6 mph - N/A   Scattered Clouds
5:30 PM 86.0 °F 91.8 °F 71.6 °F 62% 29.71 in 6.2 mi ENE 4.6 mph - N/A   Scattered Clouds
6:00 PM 84.2 °F 90.9 °F 73.4 °F 70% 29.74 in - North - - N/A   Mostly Cloudy
6:30 PM 84.2 °F 90.9 °F 73.4 °F 70% 29.74 in 5.0 mi Calm Calm - N/A   Mostly Cloudy
7:00 PM 84 °F - 76 °F 72% 29.71 in 5 mi Calm Calm - -   Mist
7:00 PM 82.4 °F 88.2 °F 73.4 °F 74% 29.77 in 5.0 mi NNW 3.5 mph - N/A   Mostly Cloudy
7:30 PM 80.6 °F 86.2 °F 75.2 °F 84% 29.77 in 5.0 mi Variable 2.3 mph - N/A   Mostly Cloudy
8:00 PM 80.6 °F 86.2 °F 75.2 °F 84% 29.80 in 5.0 mi Variable 2.3 mph - N/A   Mostly Cloudy
8:30 PM 78.8 °F - 75.2 °F 89% 29.80 in 5.0 mi Calm Calm - N/A   Mostly Cloudy
9:00 PM 78.8 °F - 75.2 °F 89% 29.83 in 5.0 mi Calm Calm - N/A   Mostly Cloudy
9:30 PM 78.8 °F - 75.2 °F 89% 29.83 in 5.0 mi Calm Calm - N/A   Mostly Cloudy
10:00 PM 78.8 °F - 75.2 °F 89% 29.83 in 5.0 mi Calm Calm - N/A   Scattered Clouds
10:30 PM 77.0 °F - 75.2 °F 94% 29.83 in 5.0 mi Calm Calm - N/A   Scattered Clouds
11:00 PM 77.0 °F - 73.4 °F 89% 29.83 in 5.0 mi Calm Calm - N/A   Scattered Clouds
11:30 PM 77.0 °F - 73.4 °F 89% 29.83 in 5.0 mi Calm Calm - N/A   Scattered Clouds